Date String (YYYY-MM-DD hh:mm:ss) UTC,Instrument flags,absolute air pressure of the measurement (hPa),sample flow rate (lpm),inlet stack bypass flow (lpm),air temperature of the measurement (°C),ambient temperature measured by the external sensor (°C),aerosol sample conditioner tube jacket temperature (°C),OPC LED temperature (°C),internal box temperature (°C),relative humidity of the measurement (%),span deviation,mass concentration of particles derived from Lorenz-Mie calculation of OPC scattering (μg/m³),mass concentration of particles derived from Lorenz-Mie calculation of OPC scattering (μg/m³),mass concentration of particles derived from Lorenz-Mie calculation of OPC scattering (μg/m³)
DateTimeUTC,F1_M11,P_M11,Q1_M11,Q2_M11,T1_M11,T2_M11,T3_M11,T4_M11,T5_M11,U1_M11,ZSPAN_M11,X0_M11,X2_M11,X1_M11
2023-11-07 15:00:00,SystemResetWarning,0822.9,4.99,000.00,027.7,026.9,000.0,035.9,029.2,9.2,0000.0,0009.39,0003.25,0002.63
2023-11-07 15:01:00,SystemResetWarning,0823.0,5.00,000.00,027.7,026.9,000.0,035.9,029.2,9.4,0000.0,0009.38,0003.26,0002.63
2023-11-07 15:02:00,SystemResetWarning,0822.9,5.00,000.00,027.7,026.9,000.0,035.9,029.2,9.6,0000.0,0009.12,0003.26,0002.63
2023-11-07 15:03:00,SystemResetWarning,0822.9,4.99,000.00,027.7,026.9,000.0,036.0,029.3,9.9,0000.0,0009.35,0003.28,0002.66
2023-11-07 15:04:00,SystemResetWarning,0822.9,4.99,000.00,027.7,027.0,000.0,036.0,029.3,9.9,0000.0,0009.57,0003.34,0002.69
2023-11-07 15:05:00,SystemResetWarning,0822.9,5.00,000.00,027.8,027.0,000.0,036.0,029.3,10.3,0000.0,0009.03,0003.34,0002.70
2023-11-07 15:06:00,SystemResetWarning,0822.9,5.00,000.00,027.8,027.0,000.0,036.0,029.3,10.4,0000.0,0008.53,0003.33,0002.71
2023-11-07 15:07:00,SystemResetWarning,0823.0,5.00,000.00,027.8,027.0,000.0,036.0,029.3,10.0,0000.0,0008.30,0003.35,0002.74
2023-11-07 15:08:00,SystemResetWarning,0822.8,5.01,000.00,027.8,027.1,000.0,036.0,029.4,9.6,0000.0,0008.43,0003.40,0002.79
2023-11-07 15:09:00,SystemResetWarning,0822.9,5.00,000.00,027.8,027.1,000.0,036.1,029.4,9.6,0000.0,0008.25,0003.44,0002.82
2023-11-07 15:10:00,SystemResetWarning,0822.8,5.00,000.00,027.9,027.1,000.0,036.1,029.4,10.3,0000.0,0006.65,0003.43,0002.85
2023-11-07 15:11:00,SystemResetWarning,0822.8,5.00,000.00,027.9,027.1,000.0,036.1,029.4,10.4,0000.0,0006.66,0003.45,0002.87
2023-11-07 15:12:00,SystemResetWarning,0823.0,4.99,000.00,027.9,027.1,000.0,036.1,029.4,10.4,0000.0,0007.27,0003.48,0002.90
2023-11-07 15:13:00,SystemResetWarning,0823.0,5.00,000.00,027.9,027.2,000.0,036.1,029.4,10.1,0000.0,0007.69,0003.50,0002.91
2023-11-07 15:14:00,SystemResetWarning,0822.9,5.00,000.00,027.9,027.2,000.0,036.1,029.5,9.8,0000.0,0007.99,0003.50,0002.93
2023-11-07 15:15:00,SystemResetWarning,0823.0,5.00,000.00,027.9,027.2,000.0,036.2,029.5,10.0,0000.0,0008.19,0003.49,0002.94
2023-11-07 15:16:00,SystemResetWarning,0823.2,5.00,000.00,028.0,027.2,000.0,036.2,029.5,9.9,0000.0,0008.69,0003.50,0002.95
2023-11-07 15:17:00,SystemResetWarning,0822.8,5.01,000.00,028.0,027.3,000.0,036.2,029.5,9.5,0000.0,0009.14,0003.50,0002.96
2023-11-07 15:18:00,SystemResetWarning,0823.0,5.00,000.00,028.0,027.3,000.0,036.2,029.5,9.6,0000.0,0009.15,0003.48,0002.96
2023-11-07 15:19:00,SystemResetWarning,0823.0,4.99,000.00,028.0,027.3,000.0,036.2,029.6,9.7,0000.0,0009.33,0003.49,0002.93
2023-11-07 15:20:00,SystemResetWarning,0822.9,5.00,000.00,028.1,027.3,000.0,036.2,029.6,10.4,0000.0,0009.39,0003.48,0002.91
2023-11-07 15:21:00,SystemResetWarning,0823.0,4.99,000.00,028.1,027.3,000.0,036.3,029.6,11.4,0000.0,0009.39,0003.47,0002.89
2023-11-07 15:22:00,SystemResetWarning,0823.0,4.99,000.00,028.1,027.4,000.0,036.3,029.6,11.0,0000.0,0009.37,0003.47,0002.88
2023-11-07 15:23:00,SystemResetWarning,0823.2,4.99,000.00,028.1,027.4,000.0,036.3,029.7,10.8,0000.0,0009.52,0003.50,0002.89
2023-11-07 15:24:00,SystemResetWarning,0822.9,5.00,000.00,028.1,027.4,000.0,036.3,029.6,10.6,0000.0,0009.70,0003.57,0002.89
2023-11-07 15:25:00,SystemResetWarning,0823.0,5.00,000.00,028.2,027.4,000.0,036.3,029.6,10.7,0000.0,0010.21,0003.60,0002.90
2023-11-07 15:26:00,SystemResetWarning,0822.8,5.00,000.00,028.2,027.4,000.0,036.4,029.7,10.7,0000.0,0009.73,0003.63,0002.93
2023-11-07 15:27:00,SystemResetWarning,0823.0,5.01,000.00,028.2,027.4,000.0,036.4,029.7,10.0,0000.0,0009.81,0003.66,0002.96
2023-11-07 15:28:00,SystemResetWarning,0823.0,5.00,000.00,028.2,027.5,000.0,036.4,029.7,10.0,0000.0,0009.63,0003.66,0002.98
2023-11-07 15:29:00,SystemResetWarning,0822.9,5.01,000.00,028.2,027.5,000.0,036.4,029.7,9.7,0000.0,0010.14,0003.68,0003.00
2023-11-07 15:30:00,SystemResetWarning,0822.9,5.01,000.00,028.2,027.5,000.0,036.4,029.8,9.4,0000.0,0010.08,0003.69,0003.02
2023-11-07 15:31:00,SystemResetWarning,0822.9,5.00,000.00,028.3,027.5,000.0,036.5,029.8,9.3,0000.0,0010.09,0003.74,0003.05
2023-11-07 15:32:00,SystemResetWarning,0823.1,5.00,000.00,028.3,027.5,000.0,036.5,029.8,9.7,0000.0,0010.06,0003.74,0003.06
2023-11-07 15:33:00,SystemResetWarning,0822.9,5.00,000.00,028.3,027.6,000.0,036.5,029.8,9.7,0000.0,0010.07,0003.73,0003.06
2023-11-07 15:34:00,SystemResetWarning,0823.0,4.99,000.00,028.3,027.6,000.0,036.5,029.8,9.7,0000.0,0009.82,0003.71,0003.06
2023-11-07 15:35:00,SystemResetWarning,0823.0,5.00,000.00,028.3,027.6,000.0,036.5,029.8,9.3,0000.0,0009.76,0003.67,0003.07
2023-11-07 15:36:00,SystemResetWarning,0822.9,5.00,000.00,028.4,027.6,000.0,036.6,029.9,9.5,0000.0,0009.07,0003.65,0003.07
2023-11-07 15:37:00,SystemResetWarning,0822.9,5.00,000.00,028.4,027.7,000.0,036.6,029.9,9.2,0000.0,0008.91,0003.63,0003.04
2023-11-07 15:38:00,SystemResetWarning,0823.0,5.01,000.00,028.4,027.7,000.0,036.6,029.9,9.1,0000.0,0008.89,0003.65,0003.03
2023-11-07 15:39:00,SystemResetWarning,0822.9,5.00,000.00,028.4,027.7,000.0,036.6,029.9,11.7,0000.0,0008.61,0003.66,0003.01
2023-11-07 15:40:00,SystemResetWarning,0822.9,5.00,000.00,028.4,027.7,000.0,036.6,029.9,12.3,0000.0,0008.73,0003.66,0002.98
2023-11-07 15:41:00,SystemResetWarning,0822.9,5.00,000.00,028.5,027.7,000.0,036.7,030.0,11.9,0000.0,0009.40,0003.69,0002.99
2023-11-07 15:42:00,SystemResetWarning,0822.9,5.00,000.00,028.5,027.8,000.0,036.7,030.0,11.7,0000.0,0009.72,0003.67,0002.98
2023-11-07 15:43:00,SystemResetWarning,0823.0,5.00,000.00,028.5,027.8,000.0,036.7,030.0,11.6,0000.0,0009.83,0003.69,0002.99
2023-11-07 15:44:00,SystemResetWarning,0823.1,4.99,000.00,028.5,027.8,000.0,036.7,030.0,11.1,0000.0,0010.07,0003.72,0003.01
2023-11-07 15:45:00,SystemResetWarning,0823.0,5.00,000.00,028.6,027.8,000.0,036.7,030.1,10.4,0000.0,0010.18,0003.72,0003.01
2023-11-07 15:46:00,SystemResetWarning,0822.9,5.00,000.00,028.6,027.8,000.0,036.8,030.1,10.3,0000.0,0010.08,0003.72,0002.99
2023-11-07 15:47:00,SystemResetWarning,0823.0,5.00,000.00,028.6,027.9,000.0,036.8,030.1,10.6,0000.0,0009.80,0003.71,0002.97
2023-11-07 15:48:00,SystemResetWarning,0823.0,5.00,000.00,028.6,027.9,000.0,036.8,030.1,11.1,0000.0,0009.80,0003.68,0002.95
2023-11-07 15:49:00,SystemResetWarning,0822.9,5.00,000.00,028.6,027.9,000.0,036.8,030.1,11.9,0000.0,0009.90,0003.67,0002.93
2023-11-07 15:50:00,SystemResetWarning,0822.9,5.00,000.00,028.7,027.9,000.0,036.8,030.2,11.6,0000.0,0009.80,0003.66,0002.93
2023-11-07 15:51:00,SystemResetWarning,0822.9,5.00,000.00,028.7,027.9,000.0,036.8,030.2,11.2,0000.0,0009.49,0003.66,0002.95
2023-11-07 15:52:00,SystemResetWarning,0822.9,5.00,000.00,028.7,028.0,000.0,036.9,030.2,11.4,0000.0,0009.32,0003.66,0002.96
2023-11-07 15:53:00,SystemResetWarning,0822.9,5.00,000.00,028.7,028.0,000.0,036.9,030.2,10.6,0000.0,0009.46,0003.68,0002.97
2023-11-07 15:54:00,SystemResetWarning,0823.0,5.00,000.00,028.7,028.0,000.0,036.9,030.2,10.4,0000.0,0010.48,0003.72,0002.97
2023-11-07 15:55:00,SystemResetWarning,0823.0,5.00,000.00,028.8,028.0,000.0,036.9,030.3,10.7,0000.0,0010.96,0003.70,0002.97
2023-11-07 15:56:00,SystemResetWarning,0822.9,5.00,000.00,028.8,028.0,000.0,036.9,030.3,10.8,0000.0,0011.79,0003.68,0002.96
2023-11-07 15:57:00,SystemResetWarning,0823.0,4.98,000.00,028.8,026.6,000.0,036.9,030.3,10.2,0000.0,0011.75,0003.70,0002.97
2023-11-07 15:58:00,SystemResetWarning,0822.9,5.01,000.00,028.7,024.7,000.0,036.9,029.9,10.7,0000.0,0011.45,0003.70,0002.97
2023-11-07 15:59:00,SystemResetWarning,0822.9,5.01,000.00,028.6,024.3,000.0,036.8,029.7,12.0,0000.0,0011.68,0003.74,0002.98
